Погода в Чернигове

Погода в Чернигове : погода сейчас, прогноз погоды и архив. Всё, что Вы хотите узнать о погоде в Чернигове!

Хотите узнать прогноз погоды в Чернигове? Тогда Вам сюда: Погода в Чернигове

Поиск расширенной информации на нашем сайте:

Другие новости

Новости СМИ2

Главная страница сайта

Новости сайта

03.07.2017

Напоминаем, что на нашем специализированном сайте Метеоцентр.Азия вы можете получить высокодетализированные автоматические прогнозы погоды по пунктам России, СНГ и мира в авиационном формате (включающие направление и скорость ветра, видимость, явления погоды, количество и форму облачности, нижнюю и верхнюю границу облачности).


Погода в Чернигове - сегодня

Время (UTC), дата Ветер
(°,м/с) 
Видим.   Явления Облачность Т
(°С)
Тd
(°С)
f(%) Тe
(°С)
Pmin
(гПа)
dP
(гПа)
Po
(мм)
O2
(г/м3)
Тmin Tmax R s Состояние
почвы
15 12.10.18 090 (В) 10 км    ясно 
+15.5 +4.8 49 +16  1034.7  -0.7  765  291           
18 12.10.18 тихо ()   н/о    ясно 
+7.5 +3.7 77 +8  1035.5  0.3  765  300    +18.6       
21 12.10.18 тихо ()   н/о    ясно 
+5.1 +2.9 86 +5  1035.9  0.3  766  302           
00 13.10.18 тихо ()   н/о    ясно 
+2.7 +1.1 89 +3  1035.9  -0.1  766  305           
03 13.10.18 тихо ()   н/о    ясно 
+0.7 -1 88 +1  1036.3  0.2  766  308           
06 13.10.18 тихо ()   10 км    ясно 
+3.3 +1.5 88 +3  1036.2  0.1  766  305  -1.5         
09 13.10.18 тихо ()   20000 м    ясно 
+16 +5.2 49 +16  1035.3  0.2  766  291           
12 13.10.18 230 (ЮЗ) 20000 м    ясно 
+19.3 +2.9 34 +20  1033.7  -1.4  765  287           
15 13.10.18 230 (ЮЗ) 10 км    ясно 
+14.2 +4.1 51 +15  1032.8  -1.2  764  292           
18 13.10.18 тихо ()   н/о    ясно 
+5.9 +3 82 +6  1033.1  -0.1  764  301    +19.5       
21 13.10.18 230 (ЮЗ) н/о  дымка  ясно 
+1.6 +0.5 92 +2  1033.5  0.1  764  306           
00 14.10.18 180 (Ю) н/о  дымка  ясно 
+1.8 +0.7 92 +3  1033.7  0.2  764  306           
03 14.10.18 тихо ()   н/о  дымка  ясно 
-0.3 -1.2 94 -0  1033.6  -0.2  764  308           
06 14.10.18 тихо ()   4000 м  дымка  ясно 
+2.7 +1.9 94 +3  1033.5  0.1  764  304  -0.8         
09 14.10.18 тихо ()   20000 м    3/0 верхняя 
[Ci fib]
+17 +5.5 47 +17  1032.8  0.1  764  289           
12 14.10.18 290 (З) 20000 м    3/0 верхняя 
[Ci fib]
+19.3 +4.1 37 +20  1031.2  -1.5  763  286           
15 14.10.18 тихо ()   10 км    3/0 верхняя 
[Ci fib]
+15 +6.8 58 +15  1030.4  -1  762  290           
18 14.10.18 тихо ()   н/о    ясно 
+5.1 +3.4 89 +5  1031.1  0.2  762  301    +20.3       
21 14.10.18 тихо ()   н/о    ясно 
+3.3 +1.5 88 +3  1031.3  0.1  762  303           
00 15.10.18 тихо ()   н/о  дымка  ясно 
+1.6 +1.1 96 +2  1031.5  0.1  762  305           
03 15.10.18 тихо ()   н/о  дымка  ясно 
+0.9 +0.3 96 +1  1031.8  0.2  762  306           
06 15.10.18 тихо ()   4000 м  дымка  3/0 верхняя 
[Ci fib]
+3.9 +2.9 93 +4  1031.9  0.3  763  303  +0.7         
09 15.10.18 тихо ()   10 км    3/0 верхняя 
[Ci fib]
+16 +8.5 61 +16  1031.2  -0.1  763  289           
12 15.10.18 тихо ()   20000 м    3/0 верхняя 
[Ci fib]
+19.5 +8 47 +20  1029.9  -1.1  762  285           
15 15.10.18 тихо ()   10 км    3/0 верхняя 
[Ci fib]
+15.2 +9.1 67 +15  1029.2  -0.9  761  289           
Время (UTC), дата Ветер
(°,м/с) 
Видим.   Явления Облачность Т
(°С)
Тd
(°С)
f(%) Тe
(°С)
Pmin
(гПа)
dP
(гПа)
Po
(мм)
O2
(г/м3)
Тmin Tmax R s Состояние
почвы

Для получения пояснительной информации подведите курсор к названию столбца.

ПОГОДА в Чернигове - архив

Всё, что Вы хотите узнать о погоде в Чернигове - удобно и подробно!

Выберите нужную дату (начиная с 1 января 2015* года) и нажмите кнопку "Найти".
Будут отображены архивные сводки погоды по пункту Чернигов, начиная с указанной даты.


Отображать данные в формате CSV (для использования в таблицах Excel)


Внимание! Наш архив погоды предназначен исключительно для личного некоммерческого использования в познавательных целях. Если Вам необходимы официальные справки о состоянии погоды (для производственных, юридических, коммерческих и т.п. целей), обращайтесь в органы Росгидромета.

*Примечание: данная дата относится к архиву по метеостанциям СССР (Россия, СНГ, Балтия).
Архив по метеостанциям Зарубежной Европы и Азии (кроме Китая) хранится 10 дней, по другим регионам земного шара (Китай, Африка, Америка, Австралия, Океания) - 1 день.

Чернигов - район местоположения метеостанции


Название, широта, долгота, высота метеостанции:
Чернигов 51.5°ш. 31.2°д. 141 м над ур. моря [Украина]

Дополнительная информация

В oтличие oт бoльшинства пoгoдных сайтoв мы публикуем пoдрoбную метеoинфoрмацию в детальнoм прoфессиoнальнoм фoрмате.

Характеристики температуры и влажнoсти вoздуха измеряются на высoте 2 м в тени вдали oт зданий и деревьев.
Скoрoсть ветра измеряется на высoте 10 м (на урoвне рoста челoвека скoрoсть ветра ниже в 1.5-2 раза). Если метеoстанция нахoдится в гoрoде или в лесу, тo скoрoсть ветра занижена на 2-4 м/с пo сравнению с oткрытым местoм. Скoрoсть ветра над акватoриями крупных рек и oзёр, а также на вершинах хoлмoв на 2-5 м/с выше, чем в oбычных услoвиях.
Атмoсфернoе давление в разных тoчках местнoсти мoжет значительнo oтличаться oт давления на метеoстанции, в зависимoсти oт услoвий рельефа (при пoдъёме на 10 м давление пoнижается примернo на 1 мм рт.ст.).